sat.trackr.live / text

‹ back to catalog

STARLINK-33839

NORAD 64113 · 2025-110T

PAYLOAD ACTIVE UNKNOWN

§ Identity

Operator
Country
US
Launch date
2025-05-23
Launch site
AFWTR
Launch vehicle
Mass (kg)
RCS (m²)

Purposes: comms

External: N2YO · Heavens-Above · Gunter

§ Orbital elements

Epoch: 2026-09-20T12:34:37.034400Z

Period
94.01 min
Inclination
53.1572°
Eccentricity
0.0001530
Mean motion
15.31692106 rev/d
Perigee alt
469.7 km
Apogee alt
471.8 km
Semi-major
6,848.9 km
B*
8.3909e-4
RAAN
200.2758°
Arg perigee
96.6587°
Mean anomaly
263.4588°
Rev number
7,573

§ Raw data

STARLINK-338391 64113U 25110T   26263.52403975  .00025756  00000+0  83909-3 0  99942 64113  53.1572 200.2758 0001530  96.6587 263.4588 15.31692106 75736

JSON: /api/v1/satellites/64113 · /tle

For live sub-satellite position, see the globe view (requires WebGL).

§ Visibility from observer

Set your observer location to see the next 7 days of passes ≥ 10°. The values pass through the URL so the page stays shareable.

No JS? Fill the form by hand. The geolocation button needs JavaScript.